Location: Broekland
(52.3610°N, 6.2005°E)
Time: 05:18:59
(UTC+00:00)

Cosmos 1500 Rocket - Pass Details

Date: 19 May 2025
Orbit: 598 x 623 km, 82.5° (Epoch: 14 June)

Event Time Altitude Azimuth Distance (km) Brightness Sun altitude
Rises 22:45:10 0° 349° (N) 2,879 8.8 -16.9°
Reaches altitude 10° 22:47:23 10° 351° (N) 1,974 7.5 -17.0°
Maximum altitude 22:51:46 81° 79° (ENE) 628 3.5 -17.1°
Enters shadow 22:53:36 34° 162° (SSE) 1,008 4.1 -17.2°
